This demonstration page uses our WeatherBlox Daily Observations layout. Learn more.

Left ArrowRight Arrow

39.08367, -84.50855

Hourly Observations for May 28, 2017

Temp ( °F °C ) Dew Point ( °F °C ) Humidity (%) Winds ( mph kmh ) Pressure ( in mb ) Visibility ( mi km ) Precip ( " mm )
12:53 am 00:53 Partly Cloudy 68 20 64 17.8 87 87 SSW 5 7 29.81 1010 10 16.0934 N/A
1:53 am 01:53 Mostly Clear 68 20 63 17.2 84 84 ESE 5 7 29.78 1009 10 16.0934 N/A
2:53 am 02:53 Clear 65 18.3 63 17.2 93 93 SSW 5 7 29.79 1009 10 16.0934 N/A
3:53 am 03:53 Clear 64 17.8 62 16.7 93 93 SSW 5 7 29.78 1009 10 16.0934 N/A
4:53 am 04:53 Clear 63 17.2 62 16.7 97 97 SSW 7 11 29.78 1009 10 16.0934 N/A
5:53 am 05:53 Clear 63 17.2 62 16.7 97 97 SSW 7 11 29.78 1008 10 16.0934 N/A
6:53 am 06:53 Sunny 63 17.2 62 16.7 97 97 S 5 7 29.78 1008 10 16.0934 N/A
7:53 am 07:53 Partly Cloudy 65 18.3 63 17.2 93 93 SSW 7 11 29.78 1008 10 16.0934 N/A
8:53 am 08:53 Mostly Cloudy 67 19.4 64 17.8 91 91 SSW 9 15 29.79 1009 10 16.0934 N/A
9:53 am 09:53 Mostly Cloudy 69 20.6 64 17.8 84 84 SSW 10 17 29.8 1009 10 16.0934 N/A
10:53 am 10:53 Mostly Cloudy 71 21.7 65 18.3 81 81 SSW 10 17 29.78 1009 10 16.0934 N/A
11:22 am 11:22 Partly Cloudy 73 22.8 66 18.9 79 79 SSW 10 17 29.8 1009 10 16.0934 N/A
11:24 am 11:24 Mostly Cloudy 73 22.8 66 18.9 79 79 SSW 10 17 29.8 1009 10 16.0934 N/A
11:53 am 11:53 Mostly Cloudy 72 22.2 65 18.3 79 79 SSW 15 24 29.78 1009 10 16.0934 N/A
12:53 pm 12:53 Mostly Cloudy 73 22.8 65 18.3 76 76 SSW 13 20 29.78 1009 10 16.0934 N/A
1:53 pm 13:53 Mostly Cloudy 74 23.3 65 18.3 74 74 WSW 12 19 29.78 1008 10 16.0934 N/A
2:53 pm 14:53 Cloudy 74 23.3 64 17.8 71 71 WSW 16 26 29.78 1009 10 16.0934 N/A
3:53 pm 15:53 Cloudy 74 23.3 64 17.8 71 71 WSW 12 19 29.79 1009 10 16.0934 N/A
4:53 pm 16:53 Cloudy 73 22.8 64 17.8 74 74 SW 9 15 29.78 1009 10 16.0934 N/A
5:53 pm 17:53 Cloudy 73 22.8 64 17.8 74 74 SW 10 17 29.78 1009 10 16.0934 N/A
6:53 pm 18:53 Partly Cloudy 73 22.8 64 17.8 74 74 SSW 12 19 29.77 1008 10 16.0934 N/A
7:53 pm 19:53 Mostly Cloudy 72 22.2 64 17.8 76 76 SW 10 17 29.79 1009 10 16.0934 N/A
8:53 pm 20:53 Mostly Cloudy with Light Rain 69 20.6 65 18.3 87 87 SSW 6 9 29.81 1010 10 16.0934 N/A
9:53 pm 21:53 Mostly Cloudy 68 20 65 18.3 90 90 SSW 6 9 29.8 1009 10 16.0934 N/A
10:15 pm 22:15 Cloudy with Light Thunderstorms 68 20 65 18.3 90 90 SW 8 13 29.83 1010 9 14.48406 N/A
10:30 pm 22:30 Cloudy with Heavy Rain 68 20 66 18.9 93 93 WSW 9 15 29.83 1010 2.5 4.02335 0.05 1.27
10:38 pm 22:38 Cloudy with Light Rain 68 20 66 18.9 93 93 SW 6 9 29.83 1010 6 9.65604 0.05 1.27
10:53 pm 22:53 Cloudy 68 20 66 18.9 93 93 WSW 3 6 29.82 1010 10 16.0934 0.05 1.27
11:07 pm 23:07 Cloudy with Nearby Thunderstorms 68 20 66 18.9 93 93 WSW 8 13 29.83 1010 10 16.0934 N/A
11:22 pm 23:22 Cloudy with Light Rain 68 20 66 18.9 93 93 SSW 8 13 29.83 1010 6 9.65604 0.01 0.254
11:34 pm 23:34 Cloudy with Nearby Thunderstorms 67 19.4 65 18.3 93 93 WSW 9 15 29.85 1011 6 9.65604 0.02 0.508
11:53 pm 23:53 Cloudy with Nearby Thunderstorms 67 19.4 65 18.3 93 93 SSW 9 15 29.84 1011 10 16.0934 0.03 0.762

Powered by AerisWeather